Time,TemperatureF,DewpointF,PressureIn,WindDirection,WindDirectionDegrees,WindSpeedMPH,WindSpeedGustMPH,Humidity,HourlyPrecipIn,Conditions,Clouds,dailyrainin,SoftwareType,DateUTC
2014-09-18 00:00:00,32.0,32.0,32.73,North,0,0.0,0.0,100,0.00,,---,19.38,VWS V14.01,2014-09-18 04:00:00,
2014-09-18 00:05:00,68.4,58.2,30.72,ENE,68,1.3,1.8,70,0.00,,---,0.00,VWS V14.01,2014-09-18 04:05:00,
2014-09-18 00:10:00,68.2,58.5,30.72,SE,135,0.2,0.7,71,0.00,,---,0.00,VWS V14.01,2014-09-18 04:10:00,
2014-09-18 00:15:00,68.0,58.3,30.72,ESE,112,0.4,0.4,71,0.00,,---,18.58,VWS V14.01,2014-09-18 04:15:00,
2014-09-18 00:20:00,67.9,58.2,30.72,SSE,158,1.3,1.3,71,0.00,,---,18.58,VWS V14.01,2014-09-18 04:20:00,
2014-09-18 00:25:00,67.7,58.4,30.72,SE,135,0.0,0.0,72,19.31,,---,18.58,VWS V14.01,2014-09-18 04:25:00,
2014-09-18 00:30:00,67.5,58.2,30.72,East,90,2.0,2.0,72,19.31,,---,18.58,VWS V14.01,2014-09-18 04:30:00,
2014-09-18 00:35:00,67.7,58.7,30.72,ENE,68,0.7,2.9,73,19.31,,---,18.58,VWS V14.01,2014-09-18 04:35:00,
2014-09-18 00:40:00,67.7,58.7,30.72,ENE,68,0.0,0.4,73,19.31,,---,18.58,VWS V14.01,2014-09-18 04:40:00,
2014-09-18 00:45:00,67.7,58.7,30.72,ESE,112,1.8,1.8,73,0.00,,---,18.58,VWS V14.01,2014-09-18 04:45:00,
2014-09-18 00:50:00,67.7,58.7,30.72,ESE,112,2.2,2.2,73,0.00,,---,18.58,VWS V14.01,2014-09-18 04:50:00,
2014-09-18 00:55:00,67.7,58.7,30.71,ESE,112,0.0,0.0,73,0.00,,---,18.58,VWS V14.01,2014-09-18 04:55:00,
2014-09-18 00:58:00,67.5,58.5,30.71,East,90,0.0,0.4,73,19.31,,---,18.58,VWS V14.01,2014-09-18 04:58:00,
2014-09-18 01:03:00,67.5,58.5,30.71,ESE,112,0.7,1.1,73,0.00,,---,18.58,VWS V14.01,2014-09-18 05:03:00,
2014-09-18 01:08:00,67.3,58.4,30.71,South,180,0.4,0.4,73,0.00,,---,18.58,VWS V14.01,2014-09-18 05:08:00,
2014-09-18 01:13:00,67.0,58.1,30.71,ESE,112,0.2,0.2,73,18.58,,---,18.58,VWS V14.01,2014-09-18 05:13:00,
2014-09-18 01:18:00,67.0,58.5,30.71,East,90,0.9,2.9,74,0.00,,---,18.58,VWS V14.01,2014-09-18 05:18:00,
2014-09-18 01:23:00,67.0,58.5,30.71,ENE,68,2.0,2.0,74,0.00,,---,18.58,VWS V14.01,2014-09-18 05:23:00,
2014-09-18 01:28:00,67.0,58.5,30.71,SE,135,0.0,0.2,74,0.00,,---,18.58,VWS V14.01,2014-09-18 05:28:00,
2014-09-18 01:33:00,67.0,58.5,30.71,SE,135,0.0,0.2,74,0.00,,---,18.58,VWS V14.01,2014-09-18 05:33:00,
2014-09-18 01:38:00,66.8,58.3,30.71,South,180,0.0,0.4,74,0.00,,---,18.58,VWS V14.01,2014-09-18 05:38:00,
2014-09-18 01:43:00,66.4,57.9,30.71,SE,135,0.2,0.2,74,0.00,,---,18.58,VWS V14.01,2014-09-18 05:43:00,
2014-09-18 01:48:00,66.2,57.7,30.71,ESE,112,0.0,0.0,74,0.00,,---,18.58,VWS V14.01,2014-09-18 05:48:00,
2014-09-18 01:53:00,65.9,57.8,30.70,SE,135,0.2,0.2,75,0.00,,---,18.58,VWS V14.01,2014-09-18 05:53:00,
2014-09-18 01:58:00,158.0,0.0,0.00,North,0,0.0,0.0,0,0.00,,---,18.58,VWS V14.01,2014-09-18 05:58:00,
2014-09-18 02:03:00,65.7,57.9,30.71,SE,135,0.9,0.9,76,0.00,,---,19.38,VWS V14.01,2014-09-18 06:03:00,
2014-09-18 02:08:00,65.5,57.7,30.71,SSE,158,0.4,1.8,76,0.00,,---,19.38,VWS V14.01,2014-09-18 06:08:00,
2014-09-18 02:13:00,65.5,57.7,30.70,SSE,158,0.0,0.0,76,0.00,,---,19.38,VWS V14.01,2014-09-18 06:13:00,
2014-09-18 02:18:00,65.3,57.5,30.70,SSE,158,0.0,0.0,76,0.00,,---,19.38,VWS V14.01,2014-09-18 06:18:00,
2014-09-18 02:23:00,65.2,57.8,30.70,South,180,0.4,0.4,77,0.00,,---,19.38,VWS V14.01,2014-09-18 06:23:00,
2014-09-18 02:28:00,65.0,57.6,30.70,SSW,202,0.4,0.4,77,0.00,,---,19.38,VWS V14.01,2014-09-18 06:28:00,
2014-09-18 02:33:00,64.8,57.4,30.70,South,180,0.0,0.0,77,0.00,,---,19.38,VWS V14.01,2014-09-18 06:33:00,
2014-09-18 02:38:00,64.8,57.4,30.70,South,180,0.0,0.0,77,0.00,,---,19.38,VWS V14.01,2014-09-18 06:38:00,
2014-09-18 02:43:00,64.4,57.0,30.70,SE,135,0.2,0.2,77,0.00,,---,19.38,VWS V14.01,2014-09-18 06:43:00,
2014-09-18 02:48:00,64.4,57.0,30.70,SE,135,0.2,0.2,77,0.00,,---,19.38,VWS V14.01,2014-09-18 06:48:00,
2014-09-18 02:53:00,64.3,57.3,30.69,SE,135,0.0,0.4,78,0.00,,---,19.38,VWS V14.01,2014-09-18 06:53:00,
2014-09-18 02:58:00,64.3,57.3,30.69,SE,135,0.4,0.4,78,0.00,,---,19.38,VWS V14.01,2014-09-18 06:58:00,
2014-09-18 03:03:00,64.3,57.3,30.69,ENE,68,0.4,0.9,78,0.00,,---,19.38,VWS V14.01,2014-09-18 07:03:00,
2014-09-18 03:08:00,64.4,57.4,30.70,East,90,0.9,1.1,78,0.00,,---,19.38,VWS V14.01,2014-09-18 07:08:00,
2014-09-18 03:13:00,64.8,57.8,30.70,East,90,0.9,0.9,78,0.00,,---,19.38,VWS V14.01,2014-09-18 07:13:00,
2014-09-18 03:18:00,65.0,58.0,30.69,SE,135,0.0,0.4,78,0.00,,---,19.38,VWS V14.01,2014-09-18 07:18:00,
2014-09-18 03:23:00,64.8,57.4,30.70,SE,135,0.0,0.4,77,0.00,,---,19.38,VWS V14.01,2014-09-18 07:23:00,
2014-09-18 03:28:00,64.8,57.4,30.70,ESE,112,0.2,0.2,77,0.00,,---,19.38,VWS V14.01,2014-09-18 07:28:00,
2014-09-18 03:33:00,64.8,57.4,30.69,ESE,112,0.0,0.2,77,0.00,,---,19.38,VWS V14.01,2014-09-18 07:33:00,
2014-09-18 03:38:00,64.8,57.4,30.69,NW,315,1.3,2.2,77,0.00,,---,19.38,VWS V14.01,2014-09-18 07:38:00,
2014-09-18 03:43:00,65.5,58.1,30.69,NE,45,0.4,1.1,77,0.00,,---,19.38,VWS V14.01,2014-09-18 07:43:00,
2014-09-18 03:48:00,66.2,58.4,30.69,ENE,68,0.2,1.8,76,0.00,,---,19.38,VWS V14.01,2014-09-18 07:48:00,
2014-09-18 03:53:00,66.6,58.4,30.69,ENE,68,0.7,0.7,75,0.00,,---,19.38,VWS V14.01,2014-09-18 07:53:00,
2014-09-18 03:58:00,67.3,58.7,30.69,NE,45,0.2,1.8,74,0.00,,---,19.38,VWS V14.01,2014-09-18 07:58:00,
2014-09-18 04:03:00,67.7,58.7,30.69,North,0,3.1,3.1,73,0.00,,---,19.38,VWS V14.01,2014-09-18 08:03:00,
2014-09-18 05:25:00,116.6,99.9,30.80,North,0,0.0,0.0,100,0.00,,---,19.38,VWS V14.01,2014-09-18 09:25:00,
2014-09-18 05:30:00,69.3,58.7,30.71,ESE,112,2.7,2.7,69,18.46,,---,19.38,VWS V14.01,2014-09-18 09:30:00,
2014-09-18 05:35:00,69.3,58.7,30.71,ENE,68,4.3,4.5,69,18.46,,---,19.38,VWS V14.01,2014-09-18 09:35:00,
2014-09-18 05:40:00,69.3,58.7,30.71,ENE,68,1.3,3.6,69,18.46,,---,19.38,VWS V14.01,2014-09-18 09:40:00,
2014-09-18 05:45:00,69.3,58.3,30.71,North,0,1.8,5.4,68,18.46,,---,19.38,VWS V14.01,2014-09-18 09:45:00,
2014-09-18 05:50:00,69.3,58.3,30.72,East,90,3.8,3.8,68,18.46,,---,19.38,VWS V14.01,2014-09-18 09:50:00,
2014-09-18 05:55:00,69.3,58.3,30.72,NE,45,1.1,1.8,68,18.46,,---,19.38,VWS V14.01,2014-09-18 09:55:00,
2014-09-18 06:00:00,69.5,58.5,30.72,NW,315,3.4,6.7,68,18.46,,---,19.38,VWS V14.01,2014-09-18 10:00:00,
2014-09-18 06:05:00,69.5,58.1,30.72,East,90,3.4,3.4,67,18.46,,---,19.38,VWS V14.01,2014-09-18 10:05:00,
2014-09-18 06:10:00,69.5,58.1,30.72,NNE,22,2.9,4.0,67,18.46,,---,19.38,VWS V14.01,2014-09-18 10:10:00,
2014-09-18 06:15:00,69.3,58.3,30.72,NNE,22,4.0,4.0,68,18.46,,---,19.38,VWS V14.01,2014-09-18 10:15:00,
2014-09-18 06:20:00,69.3,57.9,30.72,NE,45,2.5,4.9,67,18.46,,---,19.38,VWS V14.01,2014-09-18 10:20:00,
2014-09-18 06:25:00,69.3,57.9,30.72,NE,45,2.5,4.7,67,18.46,,---,19.38,VWS V14.01,2014-09-18 10:25:00,
2014-09-18 06:30:00,69.3,57.9,30.73,NE,45,2.5,2.5,67,0.00,,---,19.38,VWS V14.01,2014-09-18 10:30:00,
2014-09-18 06:35:00,69.5,58.1,30.72,ENE,68,5.4,5.4,67,0.00,,---,19.38,VWS V14.01,2014-09-18 10:35:00,
2014-09-18 06:40:00,37.6,37.6,31.34,North,0,102.9,102.9,100,0.00,,---,19.38,VWS V14.01,2014-09-18 10:40:00,
2014-09-18 06:45:00,69.3,58.3,30.73,NW,315,1.6,2.9,68,0.00,,---,19.38,VWS V14.01,2014-09-18 10:45:00,
2014-09-18 06:50:00,69.1,58.1,30.73,ENE,68,3.1,3.8,68,0.00,,---,19.38,VWS V14.01,2014-09-18 10:50:00,
2014-09-18 06:53:00,69.1,58.1,30.73,ESE,112,1.8,5.4,68,0.00,,---,19.38,VWS V14.01,2014-09-18 10:53:00,
2014-09-18 06:58:00,69.1,58.1,30.73,NNE,22,3.1,4.9,68,0.00,,---,19.38,VWS V14.01,2014-09-18 10:58:00,
2014-09-18 07:03:00,69.3,57.9,30.74,North,0,3.4,3.4,67,0.00,,---,19.38,VWS V14.01,2014-09-18 11:03:00,
2014-09-18 07:08:00,69.5,58.5,30.74,ENE,68,1.8,2.7,68,0.00,,---,19.38,VWS V14.01,2014-09-18 11:08:00,
2014-09-18 07:13:00,69.5,58.1,30.74,NNE,22,4.3,4.3,67,0.00,,---,19.38,VWS V14.01,2014-09-18 11:13:00,
2014-09-18 07:18:00,69.5,58.1,30.74,NE,45,1.8,4.0,67,0.00,,---,19.38,VWS V14.01,2014-09-18 11:18:00,
2014-09-18 07:23:00,69.8,57.5,30.74,ENE,68,3.6,7.4,65,0.00,,---,19.38,VWS V14.01,2014-09-18 11:23:00,
2014-09-18 07:28:00,70.2,57.9,30.74,ESE,112,1.1,2.7,65,0.00,,---,19.38,VWS V14.01,2014-09-18 11:28:00,
2014-09-18 07:33:00,70.6,58.3,30.74,ESE,112,4.0,4.0,65,0.00,,---,19.38,VWS V14.01,2014-09-18 11:33:00,
2014-09-18 07:38:00,70.7,58.4,30.74,ENE,68,2.5,2.7,65,0.00,,---,19.38,VWS V14.01,2014-09-18 11:38:00,
2014-09-18 07:43:00,71.1,58.8,30.74,NE,45,1.3,4.3,65,0.00,,---,19.38,VWS V14.01,2014-09-18 11:43:00,
2014-09-18 07:48:00,71.3,58.9,30.74,NNE,22,3.4,3.4,65,0.00,,---,19.38,VWS V14.01,2014-09-18 11:48:00,
2014-09-18 07:53:00,71.6,59.2,30.74,NNW,338,4.7,4.7,65,0.00,,---,19.38,VWS V14.01,2014-09-18 11:53:00,
2014-09-18 07:58:00,71.8,59.4,30.74,NNW,338,2.0,3.4,65,0.00,,---,19.38,VWS V14.01,2014-09-18 11:58:00,
2014-09-18 08:03:00,72.2,59.4,30.74,NNE,22,4.0,4.0,64,0.00,,---,19.38,VWS V14.01,2014-09-18 12:03:00,
2014-09-18 08:08:00,72.4,59.5,30.74,East,90,2.5,2.5,64,0.00,,---,19.38,VWS V14.01,2014-09-18 12:08:00,
2014-09-18 08:13:00,72.5,59.6,30.74,ESE,112,4.0,4.0,64,0.00,,---,19.38,VWS V14.01,2014-09-18 12:13:00,
2014-09-18 08:18:00,72.7,59.4,30.74,East,90,4.3,5.4,63,0.00,,---,19.38,VWS V14.01,2014-09-18 12:18:00,
2014-09-18 08:23:00,72.7,59.4,30.74,North,0,2.5,2.5,63,0.00,,---,19.38,VWS V14.01,2014-09-18 12:23:00,
2014-09-18 08:28:00,73.1,59.3,30.74,East,90,2.0,3.6,62,0.00,,---,19.38,VWS V14.01,2014-09-18 12:28:00,
2014-09-18 08:33:00,73.4,59.6,30.74,East,90,4.7,4.7,62,0.00,,---,19.38,VWS V14.01,2014-09-18 12:33:00,
2014-09-18 08:38:00,73.6,59.3,30.74,SE,135,2.2,2.2,61,0.00,,---,19.38,VWS V14.01,2014-09-18 12:38:00,
2014-09-18 08:43:00,73.8,60.0,30.74,ESE,112,4.0,5.4,62,0.00,,---,19.38,VWS V14.01,2014-09-18 12:43:00,
2014-09-18 08:48:00,74.0,59.2,30.74,North,0,4.7,4.9,60,0.00,,---,19.38,VWS V14.01,2014-09-18 12:48:00,
2014-09-18 08:53:00,74.2,59.9,30.74,North,0,1.8,5.4,61,0.00,,---,19.38,VWS V14.01,2014-09-18 12:53:00,
2014-09-18 08:58:00,74.5,59.7,30.74,East,90,2.9,4.0,60,0.00,,---,19.38,VWS V14.01,2014-09-18 12:58:00,
2014-09-18 09:03:00,74.5,59.7,30.75,East,90,2.7,2.7,60,0.00,,---,19.38,VWS V14.01,2014-09-18 13:03:00,
2014-09-18 09:08:00,74.7,60.4,30.75,East,90,4.0,4.7,61,0.00,,---,19.38,VWS V14.01,2014-09-18 13:08:00,
2014-09-18 09:13:00,74.7,59.9,30.75,East,90,4.3,4.3,60,0.00,,---,19.38,VWS V14.01,2014-09-18 13:13:00,
2014-09-18 09:14:00,74.7,59.9,30.75,East,90,4.7,4.7,60,0.00,,---,19.38,VWS V14.01,2014-09-18 13:14:00,
2014-09-18 09:19:00,74.7,59.9,30.75,SE,135,1.8,4.7,60,0.00,,---,19.38,VWS V14.01,2014-09-18 13:19:00,
2014-09-18 09:24:00,74.7,59.9,30.75,NE,45,1.1,1.8,60,0.00,,---,19.38,VWS V14.01,2014-09-18 13:24:00,
2014-09-18 09:29:00,74.9,58.7,30.75,NE,45,4.7,6.9,57,0.00,,---,19.38,VWS V14.01,2014-09-18 13:29:00,
2014-09-18 09:34:00,74.9,60.1,30.75,South,180,1.8,5.1,60,0.00,,---,19.38,VWS V14.01,2014-09-18 13:34:00,
2014-09-18 09:39:00,75.1,59.8,30.76,ENE,68,4.0,4.0,59,0.00,,---,19.38,VWS V14.01,2014-09-18 13:39:00,
2014-09-18 09:44:00,75.1,59.8,30.76,ENE,68,5.8,5.8,59,0.00,,---,19.38,VWS V14.01,2014-09-18 13:44:00,
2014-09-18 09:49:00,75.1,59.3,30.76,SE,135,5.4,6.5,58,0.00,,---,19.38,VWS V14.01,2014-09-18 13:49:00,
2014-09-18 09:54:00,75.2,60.4,30.76,ENE,68,3.8,3.8,60,0.00,,---,19.38,VWS V14.01,2014-09-18 13:54:00,
2014-09-18 09:59:00,75.4,58.6,30.77,ENE,68,4.3,4.3,56,0.00,,---,19.38,VWS V14.01,2014-09-18 13:59:00,
2014-09-18 10:04:00,76.0,59.2,30.77,NE,45,3.4,6.7,56,0.00,,---,19.38,VWS V14.01,2014-09-18 14:04:00,
2014-09-18 10:09:00,76.3,59.5,30.77,SE,135,3.8,5.4,56,0.00,,---,19.38,VWS V14.01,2014-09-18 14:09:00,
2014-09-18 10:14:00,76.0,58.2,30.77,ENE,68,1.1,7.2,54,0.00,,---,19.38,VWS V14.01,2014-09-18 14:14:00,
2014-09-18 10:19:00,76.1,59.3,30.78,NE,45,1.1,3.1,56,0.00,,---,19.38,VWS V14.01,2014-09-18 14:19:00,
2014-09-18 10:24:00,76.1,58.8,30.77,ESE,112,4.0,4.0,55,0.00,,---,19.38,VWS V14.01,2014-09-18 14:24:00,
2014-09-18 10:29:00,76.0,59.2,30.78,ENE,68,1.1,2.7,56,0.00,,---,19.38,VWS V14.01,2014-09-18 14:29:00,
2014-09-18 10:34:00,76.1,58.8,30.78,East,90,1.6,4.0,55,0.00,,---,19.38,VWS V14.01,2014-09-18 14:34:00,
2014-09-18 10:39:00,76.0,58.2,30.78,ESE,112,4.0,4.0,54,0.00,,---,19.38,VWS V14.01,2014-09-18 14:39:00,
2014-09-18 10:44:00,76.0,58.7,30.78,ENE,68,2.2,6.5,55,0.00,,---,19.38,VWS V14.01,2014-09-18 14:44:00,
2014-09-18 10:49:00,76.0,58.7,30.78,ENE,68,1.8,2.7,55,0.00,,---,19.38,VWS V14.01,2014-09-18 14:49:00,
2014-09-18 10:54:00,76.3,57.9,30.78,ENE,68,5.8,5.8,53,0.00,,---,19.38,VWS V14.01,2014-09-18 14:54:00,
2014-09-18 10:59:00,76.1,58.3,30.77,NW,315,2.5,4.0,54,0.00,,---,19.38,VWS V14.01,2014-09-18 14:59:00,
2014-09-18 11:04:00,76.5,59.2,30.78,ENE,68,3.4,4.7,55,0.00,,---,19.38,VWS V14.01,2014-09-18 15:04:00,
2014-09-18 11:09:00,76.7,58.8,30.78,ESE,112,2.5,4.9,54,0.00,,---,19.38,VWS V14.01,2014-09-18 15:09:00,
2014-09-18 11:14:00,76.3,59.0,30.77,SE,135,1.8,6.3,55,0.00,,---,19.38,VWS V14.01,2014-09-18 15:14:00,
2014-09-18 11:19:00,76.1,59.3,30.77,NNW,338,1.8,1.8,56,0.00,,---,19.38,VWS V14.01,2014-09-18 15:19:00,
2014-09-18 11:24:00,76.0,59.2,30.77,ESE,112,4.0,4.0,56,0.00,,---,19.38,VWS V14.01,2014-09-18 15:24:00,
2014-09-18 11:29:00,75.8,59.5,30.77,North,0,2.5,2.5,57,0.00,,---,19.38,VWS V14.01,2014-09-18 15:29:00,
2014-09-18 11:34:00,76.1,59.3,30.77,ENE,68,3.1,3.4,56,0.00,,---,19.38,VWS V14.01,2014-09-18 15:34:00,
2014-09-18 11:39:00,76.1,58.3,30.77,East,90,3.4,4.3,54,0.00,,---,19.38,VWS V14.01,2014-09-18 15:39:00,
2014-09-18 11:44:00,76.3,59.0,30.77,ENE,68,4.0,4.0,55,0.00,,---,19.38,VWS V14.01,2014-09-18 15:44:00,
2014-09-18 11:48:00,76.7,59.8,30.77,ENE,68,1.1,2.0,56,0.00,,---,19.38,VWS V14.01,2014-09-18 15:48:00,
2014-09-18 11:53:00,76.9,59.5,30.77,ENE,68,2.9,2.9,55,0.00,,---,19.38,VWS V14.01,2014-09-18 15:53:00,
2014-09-18 11:58:00,76.7,58.8,30.77,NNE,22,3.1,5.4,54,0.00,,---,19.38,VWS V14.01,2014-09-18 15:58:00,
2014-09-18 12:03:00,76.7,58.8,30.77,ESE,112,5.4,5.4,54,0.00,,---,19.38,VWS V14.01,2014-09-18 16:03:00,
2014-09-18 12:08:00,76.5,58.6,30.77,ENE,68,2.7,4.9,54,0.00,,---,19.38,VWS V14.01,2014-09-18 16:08:00,
2014-09-18 12:13:00,76.7,58.3,30.77,ESE,112,4.3,4.9,53,0.00,,---,19.38,VWS V14.01,2014-09-18 16:13:00,
2014-09-18 12:18:00,76.7,58.3,30.77,NE,45,2.9,3.8,53,0.00,,---,19.38,VWS V14.01,2014-09-18 16:18:00,
2014-09-18 12:23:00,76.7,57.8,30.78,ENE,68,3.4,5.1,52,0.00,,---,19.38,VWS V14.01,2014-09-18 16:23:00,
2014-09-18 12:28:00,76.5,58.1,30.78,ENE,68,4.0,4.0,53,0.00,,---,19.38,VWS V14.01,2014-09-18 16:28:00,
2014-09-18 12:33:00,76.9,58.0,30.78,SE,135,0.7,3.4,52,0.00,,---,19.38,VWS V14.01,2014-09-18 16:33:00,
2014-09-18 12:38:00,77.4,58.4,30.78,South,180,1.3,2.7,52,0.00,,---,19.38,VWS V14.01,2014-09-18 16:38:00,
2014-09-18 12:43:00,77.8,58.8,30.78,North,0,2.7,2.9,52,0.00,,---,19.38,VWS V14.01,2014-09-18 16:43:00,
2014-09-18 12:48:00,77.4,57.9,30.78,NE,45,5.4,6.7,51,0.00,,---,19.38,VWS V14.01,2014-09-18 16:48:00,
2014-09-18 12:53:00,76.9,57.4,30.78,NW,315,2.9,5.4,51,0.00,,---,19.38,VWS V14.01,2014-09-18 16:53:00,
2014-09-18 12:58:00,77.0,57.5,30.78,ENE,68,8.7,8.7,51,0.00,,---,19.38,VWS V14.01,2014-09-18 16:58:00,
2014-09-18 13:03:00,77.0,57.5,30.78,ENE,68,2.5,4.7,51,0.00,,---,19.38,VWS V14.01,2014-09-18 17:03:00,
2014-09-18 13:08:00,77.0,58.0,30.78,ESE,112,2.5,4.7,52,0.00,,---,19.38,VWS V14.01,2014-09-18 17:08:00,
2014-09-18 13:13:00,77.4,58.4,30.77,ESE,112,1.6,2.5,52,0.00,,---,19.38,VWS V14.01,2014-09-18 17:13:00,
2014-09-18 13:18:00,77.8,57.1,30.78,NE,45,4.7,6.9,49,0.00,,---,19.38,VWS V14.01,2014-09-18 17:18:00,
2014-09-18 13:23:00,77.9,58.3,30.77,NE,45,3.6,4.0,51,0.00,,---,19.38,VWS V14.01,2014-09-18 17:23:00,
2014-09-18 13:28:00,78.1,58.0,30.77,ENE,68,3.4,3.4,50,0.00,,---,19.38,VWS V14.01,2014-09-18 17:28:00,
2014-09-18 13:33:00,78.1,58.0,30.78,West,270,0.7,5.1,50,0.00,,---,19.38,VWS V14.01,2014-09-18 17:33:00,
2014-09-18 13:38:00,78.1,57.4,30.78,NNW,338,1.3,4.7,49,0.00,,---,19.38,VWS V14.01,2014-09-18 17:38:00,
2014-09-18 13:39:00,78.1,57.4,30.78,East,90,2.5,5.1,49,0.00,,---,19.38,VWS V14.01,2014-09-18 17:39:00,
2014-09-18 13:44:00,78.1,58.0,30.78,NE,45,3.8,3.8,50,0.00,,---,19.38,VWS V14.01,2014-09-18 17:44:00,
2014-09-18 13:49:00,77.8,57.1,30.78,ESE,112,4.0,5.4,49,0.00,,---,19.38,VWS V14.01,2014-09-18 17:49:00,
2014-09-18 13:54:00,78.1,57.4,30.78,ENE,68,2.0,4.9,49,0.00,,---,19.38,VWS V14.01,2014-09-18 17:54:00,
2014-09-18 13:59:00,78.1,56.8,30.78,East,90,4.7,4.7,48,0.00,,---,19.38,VWS V14.01,2014-09-18 17:59:00,
2014-09-18 14:04:00,77.9,56.1,30.78,ENE,68,5.1,6.0,47,0.00,,---,19.38,VWS V14.01,2014-09-18 18:04:00,
2014-09-18 14:09:00,77.9,56.7,30.78,East,90,2.5,4.7,48,0.00,,---,19.38,VWS V14.01,2014-09-18 18:09:00,
2014-09-18 14:14:00,78.5,56.0,30.78,ENE,68,3.8,3.8,46,0.00,,---,19.38,VWS V14.01,2014-09-18 18:14:00,
2014-09-18 14:19:00,78.7,56.2,30.78,SE,135,0.7,4.0,46,0.00,,---,19.38,VWS V14.01,2014-09-18 18:19:00,
2014-09-18 14:24:00,79.4,57.4,30.77,NNE,22,3.4,3.4,47,0.00,,---,19.38,VWS V14.01,2014-09-18 18:24:00,
2014-09-18 14:26:00,79.7,57.1,30.78,ENE,68,3.8,5.6,46,0.00,,---,19.38,VWS V14.01,2014-09-18 18:26:00,
2014-09-18 14:31:00,79.9,56.1,30.77,ENE,68,3.4,3.4,44,0.00,,---,19.38,VWS V14.01,2014-09-18 18:31:00,
2014-09-18 14:36:00,79.6,56.4,30.77,East,90,3.1,4.5,45,0.00,,---,19.38,VWS V14.01,2014-09-18 18:36:00,
2014-09-18 14:41:00,79.0,57.7,30.77,NE,45,3.1,3.1,48,0.00,,---,19.38,VWS V14.01,2014-09-18 18:41:00,
2014-09-18 14:46:00,79.6,57.6,30.77,ENE,68,2.2,3.1,47,0.00,,---,19.38,VWS V14.01,2014-09-18 18:46:00,
2014-09-18 14:51:00,79.9,57.3,30.77,SE,135,4.5,4.5,46,0.00,,---,19.38,VWS V14.01,2014-09-18 18:51:00,
2014-09-18 14:56:00,80.8,58.1,30.77,South,180,0.4,3.4,46,0.00,,---,19.38,VWS V14.01,2014-09-18 18:56:00,
2014-09-18 15:01:00,81.0,57.7,30.77,ENE,68,2.7,2.7,45,0.00,,---,19.38,VWS V14.01,2014-09-18 19:01:00,
2014-09-18 15:06:00,80.8,57.5,30.77,ENE,68,1.8,2.7,45,0.00,,---,19.38,VWS V14.01,2014-09-18 19:06:00,
2014-09-18 15:11:00,80.5,57.2,30.77,NNW,338,3.4,4.5,45,0.00,,---,19.38,VWS V14.01,2014-09-18 19:11:00,
2014-09-18 15:16:00,80.1,56.2,30.77,ESE,112,5.1,5.1,44,0.00,,---,19.38,VWS V14.01,2014-09-18 19:16:00,
2014-09-18 15:21:00,80.1,56.9,30.77,NE,45,2.5,4.0,45,0.00,,---,19.38,VWS V14.01,2014-09-18 19:21:00,
2014-09-18 15:26:00,80.3,56.4,30.77,NE,45,5.1,5.1,44,0.00,,---,19.38,VWS V14.01,2014-09-18 19:26:00,